Location: Caltech
(34.1382°N, 118.1253°W)
Time: 02:00:19
(UTC-08:00)

Meteor 2-4 Rocket - Visible Passes

Search period start: 20 February 2018 00:00
Search period end: 02 March 2018 00:00
Orbit: 800 x 908 km, 81.2° (Epoch: 19 February)

Date Brightness Start Highest point End Pass type
(mag) Time Alt. Az. Time Alt. Az. Time Alt. Az.
20 Feb 5.3 18:44:36 10° NNE 18:46:52 15° NE 18:46:52 15° NE visible
20 Feb 5.1 20:25:49 10° NNW 20:29:01 32° NNW 20:29:01 32° NNW visible
21 Feb 5.2 18:33:49 10° NE 18:36:59 15° ENE 18:37:03 15° ENE visible
21 Feb 4.5 20:14:46 10° NNW 20:19:13 49° NW 20:19:13 49° NW visible
22 Feb 5.3 18:23:04 10° NE 18:25:55 14° ENE 18:27:29 12° E visible
22 Feb 4.0 20:03:43 10° NNW 20:09:25 65° W 20:09:41 64° WSW visible
23 Feb 5.4 18:12:22 10° NE 18:14:49 13° ENE 18:17:15 10° E visible
23 Feb 3.9 19:52:41 10° NNW 19:58:23 69° W 20:00:34 38° SSW visible
24 Feb 3.8 19:41:38 10° NNW 19:47:22 74° W 19:52:23 13° S visible
25 Feb 3.7 19:30:36 10° N 19:36:20 80° W 19:41:52 10° S visible
26 Feb 3.7 19:19:34 10° N 19:25:18 85° W 19:30:50 10° S visible
27 Feb 3.6 19:08:33 10° N 19:14:16 89° E 19:19:47 10° S visible
28 Feb 3.6 18:57:32 10° N 19:03:14 83° E 19:08:43 10° S visible
01 Mar 3.6 18:46:30 10° N 18:52:11 78° E 18:57:40 10° SSE visible
